Date String (YYYY-MM-DD hh:mm:ss) UTC,Instrument flags,Ambient pressure (hPa),Sample flow (lpm),Bypass flow (lpm),Sample temperature (°C),Ambient temperature (°C),ASC tube jacket temperature (°C),LED temperature (°C),Box temperature (°C),Sample RH (%),Span deviation,Mass concentration (μg/m³),Mass concentration (μg/m³),Mass concentration (μg/m³)
DateTimeUTC,F1_M11,P_M11,Q1_M11,Q2_M11,T1_M11,T2_M11,T3_M11,T4_M11,T5_M11,U1_M11,ZSPAN_M11,X0_M11,X2_M11,X1_M11
2022-12-17 14:00:00,,0822.2,5.03,0.00,22.0,20.4,00.0,30.9,23.7,03.6,0000.0,0004.69,0002.63,0002.07
2022-12-17 14:01:00,,0822.2,4.95,0.00,22.0,20.3,00.0,30.9,23.7,03.6,0000.0,0004.74,0002.66,0002.08
2022-12-17 14:02:00,,0822.2,5.03,0.00,21.9,20.6,00.0,30.9,23.7,03.6,0000.0,0004.61,0002.66,0002.09
2022-12-17 14:03:00,,0822.2,4.97,0.00,22.0,21.6,00.0,30.8,24.0,03.5,0000.0,0004.15,0002.62,0002.07
2022-12-17 14:04:00,,0822.3,5.02,0.00,22.1,22.2,00.0,30.8,24.1,03.5,0000.0,0005.51,0002.60,0002.06
2022-12-17 14:05:00,,0822.3,5.01,0.00,22.2,21.9,00.0,30.9,24.1,03.5,0000.0,0005.89,0002.59,0002.04
2022-12-17 14:06:00,,0822.3,4.97,0.00,22.2,21.5,00.0,30.9,24.0,03.5,0000.0,0006.00,0002.61,0002.03
2022-12-17 14:07:00,,0822.3,5.05,0.00,22.1,21.2,00.0,30.9,23.9,03.5,0000.0,0006.00,0002.59,0002.02
2022-12-17 14:08:00,,0822.2,4.96,0.00,22.1,21.0,00.0,30.9,23.9,03.5,0000.0,0005.76,0002.56,0002.00
2022-12-17 14:09:00,,0822.3,5.04,0.00,22.1,20.8,00.0,30.9,23.8,03.6,0000.0,0005.74,0002.53,0001.99
2022-12-17 14:10:00,,0822.3,4.97,0.00,22.1,20.6,00.0,30.9,23.8,03.6,0000.0,0005.82,0002.54,0001.98
2022-12-17 14:11:00,,0822.3,5.01,0.00,22.0,20.5,00.0,30.9,23.8,03.6,0000.0,0005.85,0002.56,0001.99
2022-12-17 14:12:00,,0822.3,5.02,0.00,22.0,20.3,00.0,30.9,23.7,03.6,0000.0,0005.86,0002.57,0001.99
2022-12-17 14:13:00,,0822.3,4.97,0.00,21.9,20.4,00.0,30.9,23.7,03.6,0000.0,0006.01,0002.59,0001.99
2022-12-17 14:14:00,,0822.4,5.01,0.00,22.0,21.4,00.0,30.8,23.9,03.6,0000.0,0006.62,0002.66,0002.00
2022-12-17 14:15:00,,0822.4,5.00,0.00,22.1,22.2,00.0,30.8,24.1,03.6,0000.0,0005.54,0002.63,0002.00
2022-12-17 14:16:00,,0822.3,5.00,0.00,22.2,22.0,00.0,30.9,24.1,03.6,0000.0,0004.79,0002.60,0001.99
2022-12-17 14:17:00,,0822.4,4.99,0.00,22.2,21.6,00.0,30.9,24.0,03.6,0000.0,0004.77,0002.58,0001.99
2022-12-17 14:18:00,,0822.4,4.99,0.00,22.1,21.2,00.0,30.9,23.9,03.6,0000.0,0004.53,0002.52,0001.97
2022-12-17 14:19:00,,0822.4,5.03,0.00,22.1,20.9,00.0,30.9,23.9,03.6,0000.0,0004.76,0002.55,0001.96
2022-12-17 14:20:00,,0822.3,4.94,0.00,22.1,20.7,00.0,30.9,23.8,03.6,0000.0,0004.83,0002.57,0001.96
2022-12-17 14:21:00,,0822.3,5.05,0.00,22.0,20.6,00.0,30.9,23.8,03.6,0000.0,0004.76,0002.54,0001.95
2022-12-17 14:22:00,,0822.3,4.96,0.00,22.0,20.5,00.0,30.9,23.8,03.6,0000.0,0004.74,0002.53,0001.92
2022-12-17 14:23:00,,0822.3,5.02,0.00,22.0,20.4,00.0,30.9,23.7,03.6,0000.0,0004.83,0002.54,0001.91
2022-12-17 14:24:00,,0822.4,5.00,0.00,22.0,20.4,00.0,30.9,23.7,03.7,0000.0,0004.72,0002.50,0001.90
2022-12-17 14:25:00,,0822.4,4.97,0.00,22.0,21.3,00.0,30.8,23.9,03.7,0000.0,0004.20,0002.42,0001.90
2022-12-17 14:26:00,,0822.4,5.05,0.00,22.1,22.2,00.0,30.8,24.1,03.6,0000.0,0005.23,0002.46,0001.90
2022-12-17 14:27:00,,0822.4,4.95,0.00,22.2,22.2,00.0,30.9,24.2,03.6,0000.0,0005.68,0002.48,0001.90
2022-12-17 14:28:00,,0822.4,5.04,0.00,22.2,21.8,00.0,30.9,24.1,03.6,0000.0,0005.68,0002.50,0001.91
2022-12-17 14:29:00,,0822.4,4.95,0.00,22.2,21.4,00.0,31.0,24.0,03.6,0000.0,0005.84,0002.60,0001.95
2022-12-17 14:30:00,,0822.4,5.04,0.00,22.2,21.2,00.0,31.0,24.0,03.6,0000.0,0005.57,0002.59,0001.97
2022-12-17 14:31:00,,0822.4,4.98,0.00,22.2,21.0,00.0,31.0,23.9,03.6,0000.0,0006.41,0002.58,0002.00
2022-12-17 14:32:00,,0822.4,4.97,0.00,22.1,20.8,00.0,31.0,23.9,03.6,0000.0,0006.88,0002.60,0002.03
2022-12-17 14:33:00,,0822.4,5.03,0.00,22.1,20.6,00.0,31.0,23.8,03.6,0000.0,0006.92,0002.62,0002.05
2022-12-17 14:34:00,,0822.4,4.97,0.00,22.1,20.4,00.0,31.0,23.8,03.6,0000.0,0006.81,0002.60,0002.06
2022-12-17 14:35:00,,0822.5,5.04,0.00,22.0,20.3,00.0,31.0,23.7,03.6,0000.0,0006.87,0002.61,0002.08
2022-12-17 14:36:00,,0822.4,4.97,0.00,22.0,20.5,00.0,30.9,23.7,03.6,0000.0,0007.03,0002.65,0002.08
2022-12-17 14:37:00,,0822.4,4.99,0.00,22.1,21.6,00.0,30.9,23.9,03.6,0000.0,0006.39,0002.66,0002.08
2022-12-17 14:38:00,,0822.5,5.03,0.00,22.2,22.4,00.0,30.9,24.2,03.5,0000.0,0005.60,0002.67,0002.08
2022-12-17 14:39:00,,0822.5,4.97,0.00,22.2,22.1,00.0,30.9,24.2,03.5,0000.0,0005.68,0002.69,0002.08
2022-12-17 14:40:00,,0822.5,5.05,0.00,22.2,21.8,00.0,31.0,24.1,03.5,0000.0,0005.77,0002.69,0002.07
2022-12-17 14:41:00,,0822.5,4.95,0.00,22.2,21.4,00.0,31.0,24.0,03.6,0000.0,0005.74,0002.66,0002.04
2022-12-17 14:42:00,,0822.5,5.04,0.00,22.2,21.1,00.0,31.0,24.0,03.6,0000.0,0005.32,0002.66,0002.02
2022-12-17 14:43:00,,0822.5,4.97,0.00,22.2,20.9,00.0,31.0,23.9,03.6,0000.0,0004.22,0002.61,0002.02
2022-12-17 14:44:00,,0822.4,5.03,0.00,22.1,20.8,00.0,31.0,23.9,03.6,0000.0,0004.39,0002.62,0002.02
2022-12-17 14:45:00,,0822.4,4.99,0.00,22.1,20.6,00.0,31.0,23.9,03.6,0000.0,0004.68,0002.67,0002.03
2022-12-17 14:46:00,,0822.5,4.98,0.00,22.1,20.6,00.0,31.0,23.8,03.6,0000.0,0004.66,0002.67,0002.02
2022-12-17 14:47:00,,0822.4,5.01,0.00,22.0,20.5,00.0,31.0,23.8,03.6,0000.0,0004.51,0002.64,0002.01
2022-12-17 14:48:00,,0822.5,4.96,0.00,22.0,20.5,00.0,31.0,23.8,03.6,0000.0,0004.34,0002.58,0002.01
2022-12-17 14:49:00,,0822.6,5.04,0.00,22.0,20.9,00.0,30.9,23.8,03.6,0000.0,0004.37,0002.54,0002.01
2022-12-17 14:50:00,,0822.6,4.99,0.00,22.1,22.1,00.0,30.9,24.1,03.6,0000.0,0004.36,0002.52,0002.00
2022-12-17 14:51:00,,0822.6,5.00,0.00,22.3,22.7,00.0,30.9,24.3,03.6,0000.0,0004.24,0002.44,0001.99
2022-12-17 14:52:00,,0822.6,4.99,0.00,22.3,22.4,00.0,31.0,24.3,03.6,0000.0,0004.25,0002.45,0001.99
2022-12-17 14:53:00,,0822.6,5.01,0.00,22.3,21.9,00.0,31.0,24.2,03.6,0000.0,0004.59,0002.53,0002.00
2022-12-17 14:54:00,,0822.6,5.01,0.00,22.3,21.6,00.0,31.1,24.1,03.6,0000.0,0004.81,0002.57,0001.97
2022-12-17 14:55:00,,0822.6,4.97,0.00,22.3,21.3,00.0,31.1,24.1,03.6,0000.0,0004.80,0002.54,0001.95
2022-12-17 14:56:00,,0822.6,5.04,0.00,22.3,21.1,00.0,31.1,24.0,03.6,0000.0,0004.55,0002.47,0001.92
2022-12-17 14:57:00,,0822.6,4.96,0.00,22.2,21.0,00.0,31.1,24.0,03.6,0000.0,0004.50,0002.47,0001.92
2022-12-17 14:58:00,,0822.6,5.03,0.00,22.2,20.9,00.0,31.1,24.0,03.6,0000.0,0004.49,0002.45,0001.92
2022-12-17 14:59:00,,0822.6,4.97,0.00,22.2,20.8,00.0,31.1,24.0,03.6,0000.0,0004.51,0002.43,0001.90
